Location: Kott?ru
(16.6209°N, 80.6208°E)
Time: 00:48:51
(UTC+00:00)

Intelsat 5-1 Rocket - Pass Details

Date: 18 September 2020
Orbit: 309 x 7605 km, 24.0° (Epoch: 26 October)

Event Time Altitude Azimuth Distance (km) Brightness Sun altitude
Rises 14:03:59 0° 245° (WSW) 9,500 9.0 -21.6°
Reaches altitude 10° 14:12:57 10° 244° (WSW) 7,102 8.1 -23.7°
Maximum altitude 14:31:09 76° 162° (SSE) 1,510 3.7 -28.0°
Enters shadow 14:32:37 61° 100° (E) 1,442 3.5 -28.4°
